Weather History for Pocatello, ID

Change the Weather History Date:

Wednesday, October 16, 2013

  Actual Average Record
Temperature  
Mean Temperature 40 °F 47 °F  
Max Temperature 56 °F 61 °F 78 °F (1991)
Min Temperature 23 °F 33 °F 20 °F (1966)
Degree Days  
Heating Degree Days 25 18  
Month to date heating degree days 332 244  
Since 1 July heating degree days 469 493  
Cooling Degree Days 0 0  
Month to date cooling degree days 0 0  
Year to date cooling degree days 688 392  
Moisture  
Dew Point 25 °F    
Average Humidity 59    
Maximum Humidity 92    
Minimum Humidity 26    
Precipitation  
Precipitation 0.00 in 0.03 in 0.47 in (1971)
Month to date precipitation 0.38 0.45  
Year to date precipitation 5.18 9.36  
Snow  
Snow 0.00 in - - ()
Month to date snowfall T  
Since 1 July snowfall T  
Since 1 September snowfall T  
Snow Depth 0.00 in    
Sea Level Pressure  
Sea Level Pressure 30.20 in    
Wind  
Wind Speed 6 mph (SW)    
Max Wind Speed 20 mph    
Max Gust Speed 23 mph    
Visibility 10 miles    
Events      
T = Trace of Precipitation, MM = Missing Value Source: NWS Daily Summary

Daily Weather History Graph

Daily Weather History Graph

Search for Another Location

Airport:

Trip Planner

Search our weather history database for the weather conditions in past years. The results will help you decide how hot, cold, wet, or windy it might be!

Date:

Astronomy

Oct. 16, 2013 Rise Set
Actual Time 7:45 AM MDT 6:45 PM MDT
Civil Twilight 7:16 AM MDT 7:14 PM MDT
Nautical Twilight 6:43 AM MDT 7:46 PM MDT
Astronomical Twilight 6:10 AM MDT 8:19 PM MDT
Moon 5:29 PM MDT (10/16) 5:14 AM MDT (10/16)
Length of Visible Light 11h 57m
Length of Day
11h 00m
Waxing Gibbous, 94% of the Moon is Illuminated
Oct 16
Waxing Gibbous
Oct 18
Full
Oct 26
Last Quarter
Nov 3
New
Nov 9
First Quarter

Hourly Weather History & Observations

Time (MDT) Temp. Windchill Dew Point Humidity Pressure Visibility Wind Dir Wind Speed Gust Speed Precip Events Conditions
12:53 AM 34.0 °F 29.8 °F 25.0 °F 70% 30.25 in 10.0 mi South 4.6 mph - N/A   Clear
1:53 AM 32.0 °F - 26.1 °F 79% 30.25 in 10.0 mi Calm Calm - N/A   Clear
2:53 AM 30.9 °F - 25.0 °F 79% 30.25 in 10.0 mi Calm Calm - N/A   Clear
3:53 AM 30.9 °F - 25.0 °F 79% 30.23 in 10.0 mi Calm Calm - N/A   Clear
4:53 AM 26.1 °F 19.4 °F 23.0 °F 88% 30.24 in 10.0 mi NE 5.8 mph - N/A   Clear
5:53 AM 25.0 °F - 23.0 °F 92% 30.24 in 10.0 mi Calm Calm - N/A   Clear
6:53 AM 24.1 °F 17.0 °F 21.0 °F 88% 30.26 in 10.0 mi North 5.8 mph - N/A   Clear
7:53 AM 24.1 °F - 21.0 °F 88% 30.30 in 10.0 mi Calm Calm - N/A   Clear
8:53 AM 33.1 °F - 27.0 °F 78% 30.27 in 10.0 mi Calm Calm - N/A   Clear
9:53 AM 37.9 °F 35.5 °F 30.0 °F 73% 30.27 in 10.0 mi NW 3.5 mph - N/A   Clear
10:53 AM 45.0 °F - 28.9 °F 53% 30.25 in 10.0 mi Calm Calm - N/A   Clear
11:53 AM 50.0 °F - 25.0 °F 38% 30.23 in 10.0 mi SW 8.1 mph - N/A   Clear
12:53 PM 52.0 °F - 25.0 °F 35% 30.21 in 10.0 mi SW 10.4 mph - N/A   Clear
1:53 PM 52.0 °F - 27.0 °F 38% 30.18 in 10.0 mi SW 10.4 mph - N/A   Clear
2:53 PM 53.1 °F - 23.0 °F 31% 30.16 in 10.0 mi WSW 12.7 mph - N/A   Clear
3:53 PM 55.0 °F - 21.9 °F 28% 30.15 in 10.0 mi WSW 11.5 mph - N/A   Clear
4:53 PM 55.0 °F - 21.9 °F 28% 30.15 in 10.0 mi WSW 12.7 mph - N/A   Clear
5:53 PM 53.1 °F - 24.1 °F 32% 30.15 in 10.0 mi WSW 6.9 mph - N/A   Clear
6:53 PM 45.0 °F 41.8 °F 26.1 °F 48% 30.17 in 10.0 mi SSW 5.8 mph - N/A   Clear
7:53 PM 46.0 °F 41.0 °F 28.9 °F 51% 30.16 in 10.0 mi South 10.4 mph - N/A   Clear
8:53 PM 46.0 °F 39.9 °F 28.9 °F 51% 30.13 in 10.0 mi South 13.8 mph - N/A   Clear
9:53 PM 46.9 °F - 27.0 °F 46% 30.12 in 10.0 mi South 9.2 mph - N/A   Partly Cloudy
10:53 PM 46.0 °F - 27.0 °F 47% 30.11 in 10.0 mi Calm Calm - N/A   Overcast
11:53 PM 43.0 °F 41.3 °F 27.0 °F 53% 30.09 in 10.0 mi Variable 3.5 mph - N/A   Overcast